| time (UTC) | temp F | wind direction | speed MPH | gust MPH | rain 1hr in | rain 24hr in | rain mn in | humidity % | barometer mb |
| 20260508185042 | 58 | 48 | 0.0 | 2.0 | 0.00 | 0.00 | 0.00 | 64 | 1017.5 |
| 20260508184552 | 59 | 5 | 0.0 | 1.0 | 0.00 | 0.00 | 0.00 | 64 | 1017.5 |
| 20260508184047 | 59 | 17 | 0.0 | 2.0 | 0.00 | 0.00 | 0.00 | 63 | 1017.4 |
| 20260508183536 | 59 | 43 | 1.0 | 2.0 | 0.00 | 0.00 | 0.00 | 61 | 1017.4 |
| 20260508183055 | 60 | 35 | 0.0 | 2.0 | 0.00 | 0.00 | 0.00 | 60 | 1017.3 |
| 20260508182539 | 60 | 11 | 0.0 | 3.0 | 0.00 | 0.00 | 0.00 | 60 | 1017.3 |
| 20260508182037 | 60 | 22 | 1.0 | 3.0 | 0.00 | 0.00 | 0.00 | 58 | 1017.3 |
| 20260508181530 | 61 | 34 | 1.0 | 3.0 | 0.00 | 0.00 | 0.00 | 58 | 1017.3 |
| 20260508181030 | 61 | 34 | 1.0 | 4.0 | 0.00 | 0.00 | 0.00 | 57 | 1017.2 |
| 20260508180532 | 61 | 28 | 2.0 | 4.0 | 0.00 | 0.00 | 0.00 | 57 | 1017.2 |
| 20260508180027 | 61 | 53 | 1.0 | 3.0 | 0.00 | 0.00 | 0.00 | 58 | 1017.2 |
| 20260508175605 | 61 | 86 | 2.0 | 3.0 | 0.00 | 0.00 | 0.00 | 56 | 1017.1 |
| 20260508175051 | 61 | 14 | 0.0 | 4.0 | 0.00 | 0.00 | 0.00 | 56 | 1017.1 |
| 20260508174537 | 62 | 31 | 1.0 | 3.0 | 0.00 | 0.00 | 0.00 | 55 | 1017.1 |
| 20260508174029 | 62 | 30 | 2.0 | 5.0 | 0.00 | 0.00 | 0.00 | 55 | 1017.1 |
| 20260508173547 | 62 | 49 | 2.0 | 5.0 | 0.00 | 0.00 | 0.00 | 56 | 1017.1 |
| 20260508173038 | 62 | 71 | 1.0 | 4.0 | 0.00 | 0.00 | 0.00 | 57 | 1017.0 |
| 20260508172545 | 62 | 26 | 0.0 | 4.0 | 0.00 | 0.00 | 0.00 | 57 | 1016.9 |
| 20260508172035 | 62 | 9 | 1.0 | 4.0 | 0.00 | 0.00 | 0.00 | 56 | 1017.0 |
| 20260508171617 | 62 | 38 | 0.0 | 4.0 | 0.00 | 0.00 | 0.00 | 56 | 1016.9 |
| 20260508171039 | 62 | 18 | 2.0 | 4.0 | 0.00 | 0.00 | 0.00 | 57 | 1016.9 |
| 20260508170548 | 62 | 40 | 2.0 | 3.0 | 0.00 | 0.00 | 0.00 | 55 | 1016.9 |
| 20260508170030 | 63 | 49 | 2.0 | 4.0 | 0.00 | 0.00 | 0.00 | 57 | 1016.9 |
| 20260508165531 | 62 | 58 | 0.0 | 4.0 | 0.00 | 0.00 | 0.00 | 57 | 1016.9 |
| 20260508165029 | 63 | 76 | 2.0 | 4.0 | 0.00 | 0.00 | 0.00 | 56 | 1016.8 |
| 20260508164534 | 63 | 80 | 1.0 | 4.0 | 0.00 | 0.00 | 0.00 | 55 | 1016.7 |
| 20260508164029 | 63 | 20 | 0.0 | 5.0 | 0.00 | 0.00 | 0.00 | 57 | 1016.7 |
| 20260508163540 | 63 | 100 | 0.0 | 6.0 | 0.00 | 0.00 | 0.00 | 54 | 1016.7 |
| 20260508163026 | 63 | 355 | 2.0 | 6.0 | 0.00 | 0.00 | 0.00 | 56 | 1016.7 |
| 20260508162537 | 64 | 107 | 1.0 | 6.0 | 0.00 | 0.00 | 0.00 | 54 | 1016.7 |
| 20260508162103 | 64 | 71 | 2.0 | 6.0 | 0.00 | 0.00 | 0.00 | 54 | 1016.6 |
| 20260508161556 | 64 | 74 | 2.0 | 5.0 | 0.00 | 0.00 | 0.00 | 52 | 1016.6 |
| 20260508161049 | 64 | 34 | 3.0 | 8.0 | 0.00 | 0.00 | 0.00 | 55 | 1016.7 |
| 20260508160541 | 64 | 36 | 2.0 | 8.0 | 0.00 | 0.00 | 0.00 | 55 | 1016.6 |
| 20260508160027 | 64 | 32 | 1.0 | 7.0 | 0.00 | 0.00 | 0.00 | 55 | 1016.6 |
| 20260508155607 | 65 | 42 | 2.0 | 5.0 | 0.00 | 0.00 | 0.00 | 55 | 1016.6 |
| 20260508155053 | 65 | 86 | 3.0 | 7.0 | 0.00 | 0.00 | 0.00 | 52 | 1016.6 |
| 20260508154542 | 64 | 81 | 2.0 | 7.0 | 0.00 | 0.00 | 0.00 | 52 | 1016.7 |
| 20260508154100 | 65 | 94 | 2.0 | 7.0 | 0.00 | 0.00 | 0.00 | 51 | 1016.7 |
| 20260508153607 | 65 | 59 | 2.0 | 6.0 | 0.00 | 0.00 | 0.00 | 51 | 1016.7 |
| 20260508153056 | 65 | 360 | 3.0 | 6.0 | 0.00 | 0.00 | 0.00 | 53 | 1016.7 |
| 20260508152533 | 65 | 44 | 2.0 | 5.0 | 0.00 | 0.00 | 0.00 | 54 | 1016.7 |
| 20260508152038 | 65 | 42 | 3.0 | 5.0 | 0.00 | 0.00 | 0.00 | 51 | 1016.8 |
| 20260508151534 | 64 | 27 | 1.0 | 5.0 | 0.00 | 0.00 | 0.00 | 54 | 1016.8 |
| 20260508151051 | 64 | 9 | 2.0 | 5.0 | 0.00 | 0.00 | 0.00 | 53 | 1016.8 |
| 20260508150538 | 64 | 360 | 1.0 | 5.0 | 0.00 | 0.00 | 0.00 | 55 | 1016.9 |
| 20260508150033 | 64 | 17 | 3.0 | 5.0 | 0.00 | 0.00 | 0.00 | 53 | 1016.9 |
| 20260508145541 | 64 | 40 | 2.0 | 5.0 | 0.00 | 0.00 | 0.00 | 52 | 1017.0 |
| 20260508145048 | 64 | 81 | 2.0 | 5.0 | 0.00 | 0.00 | 0.00 | 53 | 1016.9 |
| 20260508144556 | 64 | 24 | 2.0 | 5.0 | 0.00 | 0.00 | 0.00 | 53 | 1016.9 |
| 20260508144042 | 64 | 107 | 2.0 | 4.0 | 0.00 | 0.00 | 0.00 | 53 | 1016.9 |
| 20260508143543 | 64 | 193 | 1.0 | 5.0 | 0.00 | 0.00 | 0.00 | 53 | 1016.9 |
| 20260508143126 | 63 | 286 | 0.0 | 5.0 | 0.00 | 0.00 | 0.00 | 51 | 1016.9 |
| 20260508142544 | 64 | 5 | 2.0 | 4.0 | 0.00 | 0.00 | 0.00 | 54 | 1017.0 |
| 20260508142048 | 64 | 12 | 2.0 | 5.0 | 0.00 | 0.00 | 0.00 | 56 | 1017.0 |
| 20260508141559 | 63 | 74 | 1.0 | 4.0 | 0.00 | 0.00 | 0.00 | 56 | 1017.0 |
| 20260508141106 | 64 | 89 | 1.0 | 5.0 | 0.00 | 0.00 | 0.00 | 54 | 1017.1 |
| 20260508140544 | 64 | 23 | 2.0 | 5.0 | 0.00 | 0.00 | 0.00 | 53 | 1017.0 |
| 20260508140031 | 64 | 52 | 1.0 | 4.0 | 0.00 | 0.00 | 0.00 | 55 | 1017.1 |
| 20260508135534 | 64 | 94 | 2.0 | 3.0 | 0.00 | 0.00 | 0.00 | 53 | 1017.1 |
| 20260508135038 | 64 | 308 | 2.0 | 4.0 | 0.00 | 0.00 | 0.00 | 53 | 1017.2 |
| 20260508134605 | 64 | 138 | 1.0 | 4.0 | 0.00 | 0.00 | 0.00 | 52 | 1017.2 |
| 20260508134028 | 64 | 79 | 0.0 | 2.0 | 0.00 | 0.00 | 0.00 | 54 | 1017.1 |
| 20260508133554 | 64 | 36 | 0.0 | 2.0 | 0.00 | 0.00 | 0.00 | 52 | 1017.1 |
| 20260508133042 | 64 | 5 | 0.0 | 3.0 | 0.00 | 0.00 | 0.00 | 54 | 1017.2 |
| 20260508132539 | 63 | 84 | 2.0 | 4.0 | 0.00 | 0.00 | 0.00 | 54 | 1017.2 |
| 20260508132043 | 64 | 80 | 3.0 | 4.0 | 0.00 | 0.00 | 0.00 | 52 | 1017.2 |
| 20260508131623 | 63 | 49 | 2.0 | 4.0 | 0.00 | 0.00 | 0.00 | 54 | 1017.2 |
| 20260508131047 | 64 | 69 | 2.0 | 5.0 | 0.00 | 0.00 | 0.00 | 52 | 1017.2 |
| 20260508130544 | 64 | 26 | 1.0 | 4.0 | 0.00 | 0.00 | 0.00 | 49 | 1017.1 |
| 20260508130044 | 65 | 169 | 2.0 | 4.0 | 0.00 | 0.00 | 0.00 | 49 | 1017.2 |
| 20260508125547 | 64 | 46 | 2.0 | 6.0 | 0.00 | 0.00 | 0.00 | 50 | 1017.2 |
| 20260508125042 | 65 | 89 | 2.0 | 6.0 | 0.00 | 0.00 | 0.00 | 49 | 1017.2 |
| 20260508124547 | 65 | 5 | 1.0 | 6.0 | 0.00 | 0.00 | 0.00 | 49 | 1017.2 |
| 20260508124103 | 66 | 40 | 2.0 | 5.0 | 0.00 | 0.00 | 0.00 | 48 | 1017.2 |
| 20260508123554 | 66 | 92 | 2.0 | 6.0 | 0.00 | 0.00 | 0.00 | 52 | 1017.3 |
| 20260508123056 | 67 | 18 | 1.0 | 6.0 | 0.00 | 0.00 | 0.00 | 52 | 1017.3 |
| 20260508122602 | 66 | 34 | 2.0 | 6.0 | 0.00 | 0.00 | 0.00 | 52 | 1017.3 |
| 20260508122043 | 68 | 337 | 2.0 | 6.0 | 0.00 | 0.00 | 0.00 | 52 | 1017.2 |
| 20260508121546 | 66 | 41 | 2.0 | 5.0 | 0.00 | 0.00 | 0.00 | 55 | 1017.3 |
| 20260508121031 | 65 | 80 | 2.0 | 5.0 | 0.00 | 0.00 | 0.00 | 56 | 1017.3 |
| 20260508120546 | 65 | 327 | 1.0 | 6.0 | 0.00 | 0.00 | 0.00 | 53 | 1017.3 |
| 20260508120028 | 67 | 146 | 2.0 | 6.0 | 0.00 | 0.00 | 0.00 | 56 | 1017.3 |
| 20260508115600 | 65 | 23 | 1.0 | 4.0 | 0.00 | 0.00 | 0.00 | 60 | 1017.3 |
| 20260508115043 | 66 | 105 | 2.0 | 8.0 | 0.00 | 0.00 | 0.00 | 56 | 1017.3 |
| 20260508114537 | 67 | 101 | 3.0 | 8.0 | 0.00 | 0.00 | 0.00 | 56 | 1017.3 |
| 20260508114031 | 65 | 192 | 0.0 | 4.0 | 0.00 | 0.00 | 0.00 | 57 | 1017.3 |
| 20260508113530 | 64 | 41 | 1.0 | 5.0 | 0.00 | 0.00 | 0.00 | 56 | 1017.4 |
| 20260508113106 | 66 | 136 | 2.0 | 8.0 | 0.00 | 0.00 | 0.00 | 57 | 1017.4 |
| 20260508112610 | 65 | 44 | 3.0 | 8.0 | 0.00 | 0.00 | 0.00 | 59 | 1017.4 |
| 20260508112054 | 65 | 87 | 3.0 | 6.0 | 0.00 | 0.00 | 0.00 | 60 | 1017.4 |
| 20260508111546 | 65 | 62 | 3.0 | 6.0 | 0.00 | 0.00 | 0.00 | 62 | 1017.5 |
| 20260508111030 | 63 | 121 | 1.0 | 5.0 | 0.00 | 0.00 | 0.00 | 64 | 1017.5 |
| 20260508110536 | 62 | 355 | 2.0 | 5.0 | 0.00 | 0.00 | 0.00 | 66 | 1017.6 |
| 20260508110039 | 62 | 178 | 0.0 | 5.0 | 0.00 | 0.00 | 0.00 | 62 | 1017.5 |
| 20260508105550 | 61 | 85 | 1.0 | 5.0 | 0.00 | 0.00 | 0.00 | 64 | 1017.6 |
| 20260508105051 | 62 | 61 | 2.0 | 5.0 | 0.00 | 0.00 | 0.00 | 66 | 1017.5 |
| 20260508104536 | 61 | 84 | 2.0 | 5.0 | 0.00 | 0.00 | 0.00 | 66 | 1017.6 |
| 20260508104031 | 61 | 82 | 2.0 | 5.0 | 0.00 | 0.00 | 0.00 | 66 | 1017.6 |
| 20260508103547 | 62 | 23 | 2.0 | 5.0 | 0.00 | 0.00 | 0.00 | 66 | 1017.6 |
| 20260508103028 | 61 | 126 | 1.0 | 5.0 | 0.00 | 0.00 | 0.00 | 67 | 1017.6 |
| 20260508102535 | 62 | 81 | 1.0 | 5.0 | 0.00 | 0.00 | 0.00 | 67 | 1017.7 |
| 20260508102033 | 61 | 290 | 1.0 | 4.0 | 0.00 | 0.00 | 0.00 | 67 | 1017.7 |
| 20260508101552 | 60 | 100 | 2.0 | 5.0 | 0.00 | 0.00 | 0.00 | 69 | 1017.7 |
| 20260508101103 | 60 | 126 | 2.0 | 5.0 | 0.00 | 0.00 | 0.00 | 69 | 1017.7 |
| 20260508100536 | 60 | 344 | 2.0 | 5.0 | 0.00 | 0.00 | 0.00 | 71 | 1017.7 |
| 20260508100037 | 60 | 116 | 1.0 | 5.0 | 0.00 | 0.00 | 0.00 | 69 | 1017.9 |
| 20260508095529 | 59 | 44 | 1.0 | 4.0 | 0.00 | 0.00 | 0.00 | 70 | 1017.8 |
| 20260508095036 | 59 | 101 | 2.0 | 4.0 | 0.00 | 0.00 | 0.00 | 71 | 1017.8 |
| 20260508094602 | 58 | 355 | 1.0 | 6.0 | 0.00 | 0.00 | 0.00 | 71 | 1017.9 |
| 20260508094028 | 59 | 112 | 3.0 | 6.0 | 0.00 | 0.00 | 0.00 | 72 | 1017.9 |
| 20260508093552 | 58 | 24 | 2.0 | 6.0 | 0.00 | 0.00 | 0.00 | 72 | 1017.9 |
| 20260508093026 | 58 | 53 | 2.0 | 6.0 | 0.00 | 0.00 | 0.00 | 73 | 1017.9 |
| 20260508092534 | 58 | 51 | 0.0 | 4.0 | 0.00 | 0.00 | 0.00 | 72 | 1017.8 |
| 20260508092055 | 58 | 96 | 1.0 | 4.0 | 0.00 | 0.00 | 0.00 | 73 | 1017.8 |
| 20260508091552 | 57 | 109 | 1.0 | 4.0 | 0.00 | 0.00 | 0.00 | 72 | 1017.8 |
| 20260508091039 | 57 | 63 | 1.0 | 6.0 | 0.00 | 0.00 | 0.00 | 75 | 1017.9 |
| 20260508090531 | 57 | 86 | 1.0 | 6.0 | 0.00 | 0.00 | 0.00 | 75 | 1017.9 |
| 20260508085540 | 57 | 14 | 3.0 | 6.0 | 0.00 | 0.00 | 0.00 | 76 | 1017.8 |
| 20260508085100 | 56 | 80 | 1.0 | 5.0 | 0.00 | 0.00 | 0.00 | 75 | 1017.9 |
| 20260508084539 | 56 | 111 | 2.0 | 5.0 | 0.00 | 0.00 | 0.00 | 77 | 1017.9 |
| 20260508084031 | 56 | 101 | 2.0 | 6.0 | 0.00 | 0.00 | 0.00 | 76 | 1017.8 |
| 20260508083550 | 56 | 15 | 2.0 | 6.0 | 0.00 | 0.00 | 0.00 | 76 | 1017.8 |
| 20260508083038 | 56 | 86 | 2.0 | 5.0 | 0.00 | 0.00 | 0.00 | 77 | 1017.8 |
| 20260508082535 | 55 | 146 | 1.0 | 3.0 | 0.00 | 0.00 | 0.00 | 78 | 1017.8 |
| 20260508082049 | 54 | 173 | 1.0 | 3.0 | 0.00 | 0.00 | 0.00 | 78 | 1017.8 |
| 20260508081546 | 54 | 219 | 1.0 | 5.0 | 0.00 | 0.00 | 0.00 | 78 | 1017.7 |
| 20260508081022 | 55 | 155 | 0.0 | 5.0 | 0.00 | 0.00 | 0.00 | 78 | 1017.7 |
| 20260508080621 | 55 | 96 | 1.0 | 7.0 | 0.00 | 0.00 | 0.00 | 80 | 1017.8 |
| 20260508080047 | 54 | 32 | 2.0 | 7.0 | 0.00 | 0.00 | 0.00 | 80 | 1017.8 |
| 20260508075539 | 54 | 69 | 0.0 | 4.0 | 0.00 | 0.00 | 0.00 | 80 | 1017.7 |
| 20260508075036 | 54 | 69 | 3.0 | 4.0 | 0.00 | 0.00 | 0.00 | 80 | 1017.7 |
| 20260508074547 | 54 | 355 | 2.0 | 3.0 | 0.00 | 0.00 | 0.00 | 81 | 1017.6 |
| 20260508074029 | 53 | 84 | 1.0 | 5.0 | 0.00 | 0.00 | 0.00 | 80 | 1017.7 |
| 20260508073533 | 53 | 71 | 3.0 | 5.0 | 0.00 | 0.00 | 0.00 | 81 | 1017.7 |
| 20260508073054 | 53 | 42 | 2.0 | 5.0 | 0.00 | 0.00 | 0.00 | 82 | 1017.7 |
| 20260508072542 | 53 | 71 | 1.0 | 3.0 | 0.00 | 0.00 | 0.00 | 82 | 1017.7 |
| 20260508072048 | 53 | 149 | 0.0 | 3.0 | 0.00 | 0.00 | 0.00 | 81 | 1017.7 |
| 20260508071534 | 53 | 79 | 1.0 | 3.0 | 0.00 | 0.00 | 0.00 | 81 | 1017.7 |
| 20260508071034 | 53 | 97 | 1.0 | 5.0 | 0.00 | 0.00 | 0.00 | 81 | 1017.6 |
| 20260508070551 | 52 | 70 | 1.0 | 5.0 | 0.00 | 0.00 | 0.00 | 82 | 1017.5 |
| 20260508070056 | 52 | 132 | 1.0 | 5.0 | 0.00 | 0.00 | 0.00 | 82 | 1017.5 |
| 20260508065538 | 52 | 19 | 2.0 | 5.0 | 0.00 | 0.00 | 0.00 | 83 | 1017.5 |
| 20260508065039 | 52 | 79 | 2.0 | 3.0 | 0.00 | 0.00 | 0.00 | 83 | 1017.4 |
| 20260508064534 | 52 | 28 | 2.0 | 3.0 | 0.00 | 0.00 | 0.00 | 84 | 1017.4 |
| 20260508064037 | 52 | 153 | 2.0 | 3.0 | 0.00 | 0.00 | 0.00 | 83 | 1017.4 |
| 20260508063530 | 51 | 83 | 1.0 | 3.0 | 0.00 | 0.00 | 0.00 | 83 | 1017.4 |
| 20260508063048 | 51 | 86 | 1.0 | 5.0 | 0.00 | 0.00 | 0.00 | 84 | 1017.4 |
| 20260508062548 | 51 | 93 | 1.0 | 5.0 | 0.00 | 0.00 | 0.00 | 84 | 1017.3 |
| 20260508062112 | 51 | 95 | 2.0 | 3.0 | 0.00 | 0.00 | 0.00 | 85 | 1017.3 |
| 20260508061539 | 51 | 32 | 1.0 | 4.0 | 0.00 | 0.00 | 0.00 | 85 | 1017.3 |
| 20260508061032 | 51 | 123 | 2.0 | 4.0 | 0.00 | 0.00 | 0.00 | 84 | 1017.3 |
| 20260508060534 | 51 | 86 | 1.0 | 2.0 | 0.00 | 0.00 | 0.00 | 85 | 1017.3 |
| 20260508060037 | 51 | 105 | 1.0 | 3.0 | 0.00 | 0.00 | 0.00 | 85 | 1017.3 |
| 20260508055543 | 51 | 105 | 1.0 | 4.0 | 0.00 | 0.00 | 0.00 | 85 | 1017.3 |
| 20260508055046 | 51 | 105 | 2.0 | 4.0 | 0.00 | 0.00 | 0.00 | 85 | 1017.3 |
| 20260508054532 | 51 | 90 | 2.0 | 5.0 | 0.00 | 0.00 | 0.00 | 85 | 1017.3 |
| 20260508054025 | 51 | 88 | 1.0 | 3.0 | 0.00 | 0.00 | 0.00 | 85 | 1017.2 |
| 20260508053546 | 51 | 113 | 1.0 | 3.0 | 0.00 | 0.00 | 0.00 | 85 | 1017.2 |
| 20260508053027 | 50 | 76 | 2.0 | 4.0 | 0.00 | 0.00 | 0.00 | 85 | 1017.2 |
| 20260508052545 | 50 | 119 | 1.0 | 4.0 | 0.00 | 0.00 | 0.00 | 85 | 1017.1 |
| 20260508052040 | 50 | 105 | 1.0 | 4.0 | 0.00 | 0.00 | 0.00 | 85 | 1017.0 |
| 20260508051544 | 50 | 94 | 1.0 | 3.0 | 0.00 | 0.00 | 0.00 | 85 | 1017.0 |
| 20260508051036 | 50 | 104 | 0.0 | 3.0 | 0.00 | 0.00 | 0.00 | 85 | 1017.0 |
| 20260508050606 | 50 | 82 | 1.0 | 4.0 | 0.00 | 0.00 | 0.00 | 85 | 1016.9 |
| 20260508050025 | 50 | 121 | 2.0 | 4.0 | 0.00 | 0.00 | 0.00 | 85 | 1016.8 |
| 20260508045544 | 50 | 94 | 1.0 | 3.0 | 0.00 | 0.00 | 0.00 | 84 | 1016.8 |
| 20260508045052 | 50 | 103 | 1.0 | 4.0 | 0.00 | 0.00 | 0.00 | 84 | 1016.8 |
| 20260508044552 | 50 | 81 | 2.0 | 4.0 | 0.00 | 0.00 | 0.00 | 84 | 1016.8 |
| 20260508044034 | 50 | 94 | 1.0 | 5.0 | 0.00 | 0.00 | 0.00 | 85 | 1016.8 |
| 20260508043536 | 50 | 63 | 2.0 | 5.0 | 0.00 | 0.00 | 0.00 | 85 | 1016.8 |
| 20260508043042 | 50 | 78 | 2.0 | 4.0 | 0.00 | 0.00 | 0.00 | 85 | 1016.7 |
| 20260508042603 | 50 | 90 | 1.0 | 3.0 | 0.00 | 0.00 | 0.00 | 85 | 1016.6 |
| 20260508042053 | 50 | 76 | 1.0 | 3.0 | 0.00 | 0.00 | 0.00 | 85 | 1016.6 |
| 20260508041555 | 50 | 63 | 0.0 | 4.0 | 0.00 | 0.00 | 0.00 | 85 | 1016.6 |
| 20260508041037 | 50 | 72 | 1.0 | 4.0 | 0.00 | 0.00 | 0.00 | 85 | 1016.6 |
| 20260508040549 | 50 | 96 | 1.0 | 3.0 | 0.00 | 0.00 | 0.00 | 85 | 1016.6 |
| 20260508040029 | 50 | 195 | 1.0 | 4.0 | 0.00 | 0.00 | 0.00 | 85 | 1016.6 |
| 20260508035542 | 51 | 84 | 2.0 | 4.0 | 0.00 | 0.00 | 0.00 | 85 | 1016.6 |
| 20260508035037 | 51 | 90 | 1.0 | 5.0 | 0.00 | 0.00 | 0.00 | 84 | 1016.6 |
| 20260508034547 | 51 | 96 | 2.0 | 4.0 | 0.00 | 0.00 | 0.00 | 84 | 1016.6 |
| 20260508034043 | 51 | 80 | 2.0 | 5.0 | 0.00 | 0.00 | 0.00 | 84 | 1016.6 |
| 20260508033542 | 51 | 49 | 2.0 | 5.0 | 0.00 | 0.00 | 0.00 | 84 | 1016.6 |
| 20260508033035 | 51 | 91 | 2.0 | 7.0 | 0.00 | 0.00 | 0.00 | 84 | 1016.6 |
| 20260508032556 | 51 | 89 | 2.0 | 7.0 | 0.00 | 0.00 | 0.00 | 84 | 1016.6 |
| 20260508032039 | 51 | 99 | 1.0 | 5.0 | 0.00 | 0.00 | 0.00 | 84 | 1016.6 |
| 20260508031604 | 51 | 82 | 2.0 | 5.0 | 0.00 | 0.00 | 0.00 | 83 | 1016.7 |
| 20260508031048 | 51 | 84 | 0.0 | 5.0 | 0.00 | 0.00 | 0.00 | 83 | 1016.6 |
| 20260508030535 | 51 | 210 | 1.0 | 5.0 | 0.00 | 0.00 | 0.00 | 83 | 1016.5 |
| 20260508030036 | 51 | 49 | 1.0 | 2.0 | 0.00 | 0.00 | 0.00 | 83 | 1016.5 |
| 20260508025603 | 51 | 48 | 1.0 | 3.0 | 0.00 | 0.00 | 0.00 | 83 | 1016.4 |
| 20260508025031 | 51 | 92 | 2.0 | 4.0 | 0.00 | 0.00 | 0.00 | 82 | 1016.4 |
| 20260508024555 | 51 | 113 | 1.0 | 5.0 | 0.00 | 0.00 | 0.00 | 82 | 1016.5 |
| 20260508024052 | 51 | 41 | 2.0 | 4.0 | 0.00 | 0.00 | 0.00 | 82 | 1016.4 |
| 20260508023550 | 52 | 95 | 2.0 | 4.0 | 0.00 | 0.00 | 0.00 | 82 | 1016.4 |
| 20260508023044 | 52 | 98 | 1.0 | 3.0 | 0.00 | 0.00 | 0.00 | 82 | 1016.5 |
| 20260508022536 | 52 | 97 | 1.0 | 4.0 | 0.00 | 0.00 | 0.00 | 82 | 1016.5 |
| 20260508022056 | 52 | 92 | 2.0 | 5.0 | 0.00 | 0.00 | 0.00 | 82 | 1016.5 |
| 20260508021527 | 52 | 94 | 1.0 | 5.0 | 0.00 | 0.00 | 0.00 | 82 | 1016.4 |
| 20260508021035 | 52 | 71 | 2.0 | 5.0 | 0.00 | 0.00 | 0.00 | 82 | 1016.5 |
| 20260508020537 | 52 | 69 | 2.0 | 3.0 | 0.00 | 0.00 | 0.00 | 82 | 1016.4 |
| 20260508020028 | 52 | 97 | 1.0 | 3.0 | 0.00 | 0.00 | 0.00 | 81 | 1016.4 |
| 20260508015538 | 52 | 85 | 1.0 | 3.0 | 0.00 | 0.00 | 0.00 | 81 | 1016.4 |
| 20260508015052 | 52 | 69 | 1.0 | 5.0 | 0.00 | 0.00 | 0.00 | 81 | 1016.4 |
| 20260508014607 | 52 | 47 | 2.0 | 5.0 | 0.00 | 0.00 | 0.00 | 81 | 1016.4 |
| 20260508014025 | 52 | 94 | 2.0 | 3.0 | 0.00 | 0.00 | 0.00 | 81 | 1016.4 |
| 20260508013546 | 52 | 74 | 1.0 | 4.0 | 0.00 | 0.00 | 0.00 | 81 | 1016.4 |
| 20260508013031 | 52 | 104 | 2.0 | 4.0 | 0.00 | 0.00 | 0.00 | 81 | 1016.4 |
| 20260508012532 | 52 | 70 | 2.0 | 5.0 | 0.00 | 0.00 | 0.00 | 81 | 1016.5 |
| 20260508012032 | 53 | 90 | 2.0 | 5.0 | 0.00 | 0.00 | 0.00 | 80 | 1016.4 |
| 20260508011539 | 52 | 58 | 2.0 | 4.0 | 0.00 | 0.00 | 0.00 | 81 | 1016.4 |
| 20260508011034 | 53 | 87 | 1.0 | 5.0 | 0.00 | 0.00 | 0.00 | 81 | 1016.5 |
| 20260508010604 | 53 | 96 | 2.0 | 5.0 | 0.00 | 0.00 | 0.00 | 80 | 1016.5 |
| 20260508010027 | 53 | 82 | 1.0 | 6.0 | 0.00 | 0.00 | 0.00 | 80 | 1016.5 |
| 20260508005539 | 53 | 76 | 2.0 | 6.0 | 0.00 | 0.00 | 0.00 | 80 | 1016.5 |
| 20260508005027 | 53 | 66 | 2.0 | 4.0 | 0.00 | 0.00 | 0.00 | 80 | 1016.5 |
| 20260508004534 | 53 | 108 | 1.0 | 6.0 | 0.00 | 0.00 | 0.00 | 80 | 1016.5 |
| 20260508004036 | 53 | 360 | 3.0 | 6.0 | 0.00 | 0.00 | 0.00 | 80 | 1016.5 |
| 20260508003604 | 53 | 82 | 2.0 | 4.0 | 0.00 | 0.00 | 0.00 | 80 | 1016.6 |
| 20260508003042 | 53 | 86 | 2.0 | 4.0 | 0.00 | 0.00 | 0.00 | 80 | 1016.5 |
| 20260508002542 | 53 | 65 | 2.0 | 5.0 | 0.00 | 0.00 | 0.00 | 79 | 1016.5 |
| 20260508002036 | 53 | 79 | 1.0 | 5.0 | 0.00 | 0.00 | 0.00 | 79 | 1016.6 |
| 20260508001556 | 53 | 101 | 1.0 | 3.0 | 0.00 | 0.00 | 0.00 | 78 | 1016.6 |
| 20260508001047 | 53 | 83 | 1.0 | 5.0 | 0.00 | 0.00 | 0.00 | 78 | 1016.5 |
| 20260508000534 | 53 | 104 | 2.0 | 5.0 | 0.00 | 0.00 | 0.00 | 78 | 1016.5 |
| 20260508000046 | 53 | 67 | 1.0 | 4.0 | 0.00 | 0.00 | 0.00 | 77 | 1016.5 |
| 20260507235534 | 53 | 84 | 2.0 | 4.0 | 0.00 | 0.00 | 0.00 | 77 | 1016.6 |
| 20260507235059 | 53 | 84 | 1.0 | 4.0 | 0.00 | 0.00 | 0.00 | 77 | 1016.7 |
| 20260507234541 | 54 | 115 | 1.0 | 4.0 | 0.00 | 0.00 | 0.00 | 77 | 1016.6 |
| 20260507234028 | 54 | 87 | 1.0 | 3.0 | 0.00 | 0.00 | 0.00 | 76 | 1016.7 |
| 20260507233557 | 54 | 126 | 1.0 | 3.0 | 0.00 | 0.00 | 0.00 | 76 | 1016.6 |
| 20260507233103 | 54 | 93 | 1.0 | 6.0 | 0.00 | 0.00 | 0.00 | 77 | 1016.7 |
| 20260507232537 | 53 | 65 | 1.0 | 6.0 | 0.00 | 0.00 | 0.00 | 77 | 1016.6 |
| 20260507232043 | 53 | 88 | 1.0 | 3.0 | 0.00 | 0.00 | 0.00 | 77 | 1016.6 |
| 20260507231541 | 53 | 78 | 1.0 | 3.0 | 0.00 | 0.00 | 0.00 | 77 | 1016.6 |
| 20260507231106 | 53 | 360 | 0.0 | 3.0 | 0.00 | 0.00 | 0.00 | 77 | 1016.6 |
| 20260507230549 | 53 | 65 | 1.0 | 4.0 | 0.00 | 0.00 | 0.00 | 78 | 1016.6 |
| 20260507230038 | 53 | 63 | 1.0 | 4.0 | 0.00 | 0.00 | 0.00 | 80 | 1016.6 |
| 20260507225628 | 53 | 5 | 0.0 | 2.0 | 0.00 | 0.00 | 0.00 | 80 | 1016.6 |
| 20260507225043 | 52 | 5 | 0.0 | 2.0 | 0.00 | 0.00 | 0.00 | 81 | 1016.6 |
| 20260507224541 | 52 | 5 | 0.0 | 2.0 | 0.00 | 0.00 | 0.00 | 82 | 1016.6 |
| 20260507224037 | 53 | 5 | 0.0 | 2.0 | 0.00 | 0.00 | 0.00 | 82 | 1016.7 |
| 20260507223544 | 52 | 5 | 0.0 | 2.0 | 0.00 | 0.00 | 0.00 | 81 | 1016.7 |
| 20260507223100 | 52 | 5 | 1.0 | 2.0 | 0.00 | 0.00 | 0.00 | 81 | 1016.6 |
| 20260507222534 | 52 | 5 | 1.0 | 2.0 | 0.00 | 0.00 | 0.00 | 81 | 1016.7 |
| 20260507222039 | 52 | 5 | 1.0 | 2.0 | 0.00 | 0.00 | 0.00 | 81 | 1016.7 |
| 20260507221611 | 52 | 5 | 1.0 | 2.0 | 0.00 | 0.00 | 0.00 | 81 | 1016.6 |
| 20260507221046 | 52 | 5 | 0.0 | 2.0 | 0.00 | 0.00 | 0.00 | 81 | 1016.6 |
| 20260507220604 | 52 | 5 | 0.0 | 0.0 | 0.00 | 0.00 | 0.00 | 80 | 1016.5 |
| 20260507220050 | 52 | 5 | 0.0 | 2.0 | 0.00 | 0.00 | 0.00 | 80 | 1016.6 |
| 20260507215554 | 52 | 5 | 0.0 | 1.0 | 0.00 | 0.00 | 0.00 | 79 | 1016.6 |
| 20260507215101 | 52 | 5 | 0.0 | 2.0 | 0.00 | 0.00 | 0.00 | 79 | 1016.6 |
| 20260507214535 | 53 | 5 | 0.0 | 2.0 | 0.00 | 0.00 | 0.00 | 78 | 1016.5 |
| 20260507214043 | 53 | 5 | 0.0 | 2.0 | 0.00 | 0.00 | 0.00 | 78 | 1016.5 |
| 20260507213617 | 53 | 5 | 1.0 | 2.0 | 0.00 | 0.00 | 0.00 | 77 | 1016.5 |
| 20260507213027 | 54 | 5 | 1.0 | 2.0 | 0.00 | 0.00 | 0.00 | 77 | 1016.5 |
| 20260507212530 | 54 | 22 | 1.0 | 3.0 | 0.00 | 0.00 | 0.00 | 76 | 1016.5 |
| 20260507212105 | 54 | 30 | 1.0 | 4.0 | 0.00 | 0.00 | 0.00 | 76 | 1016.6 |
| 20260507211548 | 54 | 24 | 2.0 | 4.0 | 0.00 | 0.00 | 0.00 | 75 | 1016.6 |
| 20260507211042 | 54 | 5 | 1.0 | 2.0 | 0.00 | 0.00 | 0.00 | 75 | 1016.5 |
| 20260507210544 | 54 | 5 | 0.0 | 3.0 | 0.00 | 0.00 | 0.00 | 74 | 1016.6 |
| 20260507210036 | 54 | 13 | 1.0 | 3.0 | 0.00 | 0.00 | 0.00 | 74 | 1016.6 |
| 20260507205530 | 55 | 38 | 0.0 | 3.0 | 0.00 | 0.00 | 0.00 | 73 | 1016.5 |
| 20260507205054 | 55 | 31 | 2.0 | 4.0 | 0.00 | 0.00 | 0.00 | 73 | 1016.5 |
| 20260507204554 | 55 | 5 | 1.0 | 4.0 | 0.00 | 0.00 | 0.00 | 72 | 1016.4 |
| 20260507204052 | 55 | 32 | 1.0 | 3.0 | 0.00 | 0.00 | 0.00 | 72 | 1016.4 |
| 20260507203557 | 55 | 5 | 1.0 | 5.0 | 0.00 | 0.00 | 0.00 | 71 | 1016.4 |
| 20260507203029 | 55 | 47 | 2.0 | 5.0 | 0.00 | 0.00 | 0.00 | 71 | 1016.3 |
| 20260507202551 | 56 | 22 | 1.0 | 4.0 | 0.00 | 0.00 | 0.00 | 71 | 1016.4 |
| 20260507202044 | 56 | 28 | 1.0 | 4.0 | 0.00 | 0.00 | 0.00 | 71 | 1016.4 |
| 20260507201609 | 56 | 341 | 1.0 | 3.0 | 0.00 | 0.00 | 0.00 | 72 | 1016.3 |
| 20260507201043 | 55 | 5 | 1.0 | 3.0 | 0.00 | 0.00 | 0.00 | 72 | 1016.3 |
| 20260507200547 | 56 | 27 | 1.0 | 3.0 | 0.00 | 0.00 | 0.00 | 71 | 1016.2 |
| 20260507200043 | 56 | 14 | 2.0 | 3.0 | 0.00 | 0.00 | 0.00 | 71 | 1016.1 |
| 20260507195603 | 56 | 355 | 2.0 | 4.0 | 0.00 | 0.00 | 0.00 | 71 | 1016.0 |
| 20260507195032 | 56 | 23 | 1.0 | 5.0 | 0.00 | 0.00 | 0.00 | 70 | 1016.0 |
| 20260507194530 | 56 | 40 | 2.0 | 5.0 | 0.00 | 0.00 | 0.00 | 70 | 1016.0 |
| 20260507194030 | 56 | 355 | 1.0 | 2.0 | 0.00 | 0.00 | 0.00 | 69 | 1016.0 |
| 20260507193555 | 56 | 39 | 1.0 | 2.0 | 0.00 | 0.00 | 0.00 | 69 | 1015.9 |
| 20260507193044 | 56 | 39 | 1.0 | 3.0 | 0.00 | 0.00 | 0.00 | 68 | 1015.9 |
| 20260507192544 | 56 | 28 | 1.0 | 3.0 | 0.00 | 0.00 | 0.00 | 67 | 1015.9 |
| 20260507192042 | 56 | 48 | 1.0 | 5.0 | 0.00 | 0.00 | 0.00 | 67 | 1015.8 |
| 20260507191537 | 57 | 69 | 3.0 | 5.0 | 0.00 | 0.00 | 0.00 | 66 | 1015.9 |
| 20260507191027 | 57 | 36 | 2.0 | 6.0 | 0.00 | 0.00 | 0.00 | 65 | 1015.8 |
| 20260507190535 | 57 | 13 | 1.0 | 6.0 | 0.00 | 0.00 | 0.00 | 64 | 1015.8 |
| 20260507190046 | 57 | 46 | 2.0 | 5.0 | 0.00 | 0.00 | 0.00 | 64 | 1015.8 |
| 20260507185554 | 57 | 78 | 2.0 | 5.0 | 0.00 | 0.00 | 0.00 | 63 | 1015.8 |